This is the latest recevied weather packets stored in our database for station/object KA9CBS. If no packets are shown the sender has not sent any weather packets the latest 10 day(s).
| Time | Temp. | Humidity | Pressure | Rain* | Wind** | Luminosity | Snow |
|---|---|---|---|---|---|---|---|
| 1788059479 | 22.22° C | 81% | 1019.9 hPa | 0 mm | - | 0 W/m² | - |
| 1788059175 | 22.22° C | 80% | 1019.9 hPa | 0 mm | - | 0 W/m² | - |
| 1788058870 | 22.22° C | 80% | 1019.7 hPa | 0 mm | - | 0 W/m² | - |
| 1788058568 | 22.22° C | 81% | 1019.9 hPa | 0 mm | - | 0 W/m² | - |
| 1788058263 | 22.22° C | 82% | 1019.6 hPa | 0 mm | - | 0 W/m² | - |
| 1788057958 | 21.67° C | 84% | 1019.7 hPa | 0 mm | - | 0 W/m² | - |
| 1788057656 | 22.22° C | 84% | 1019.8 hPa | 0 mm | - | 0 W/m² | - |
| 1788057354 | 21.67° C | 86% | 1019.6 hPa | 0 mm | - | 0 W/m² | - |
| 1788057043 | 21.67° C | 85% | 1019.3 hPa | 0 mm | - | 0 W/m² | - |
| 1788056732 | 21.67° C | 86% | 1019.8 hPa | 0 mm | - | 0 W/m² | - |
| 1788056428 | 21.67° C | 85% | 1019.7 hPa | 0 mm | - | 0 W/m² | - |
| 1788056127 | 21.67° C | 85% | 1019.5 hPa | 0 mm | - | 0 W/m² | - |
| 1788055822 | 22.22° C | 85% | 1019.6 hPa | 0 mm | - | 0 W/m² | - |
| 1788055521 | 22.22° C | 84% | 1019.6 hPa | 0 mm | - | 0 W/m² | - |
| 1788055217 | 22.78° C | 81% | 1019.3 hPa | 0 mm | - | 0 W/m² | - |
| 1788054912 | 22.78° C | 79% | 1019.5 hPa | 0 mm | - | 0 W/m² | - |
| 1788054607 | 22.78° C | 78% | 1019.4 hPa | 0 mm | - | 0 W/m² | - |
| 1788054297 | 22.78° C | 77% | 1019.4 hPa | 0 mm | - | 0 W/m² | - |
| 1788053993 | 22.78° C | 77% | 1019.3 hPa | 0 mm | - | 0 W/m² | - |
| 1788053688 | 22.78° C | 79% | 1019.1 hPa | 0 mm | - | 0 W/m² | - |
| 1788053383 | 23.33° C | 79% | 1018.9 hPa | 0 mm | - | 0 W/m² | - |
| 1788053078 | 23.33° C | 79% | 1019 hPa | 0 mm | - | 0 W/m² | - |
| 1788052774 | 23.89° C | 80% | 1018.8 hPa | 0 mm | - | 0 W/m² | - |
| 1788052469 | 23.89° C | 77% | 1018.7 hPa | 0 mm | - | 0 W/m² | - |
| 1788052164 | 23.89° C | 80% | 1018.8 hPa | 0 mm | - | 0 W/m² | - |
* Rain latest hour (hover to see other rain measurements)
** Current wind speed in m/s (hover to see current wind gust speed)